Location: Gibsondale
(40.9931°N, 80.2478°W)
Time: 18:10:59
(UTC+00:00)

ARGOS - Pass Details

Date: 29 October 2020
Orbit: 820 x 835 km, 98.4° (Epoch: 23 November)

Event Time Altitude Azimuth Distance (km) Brightness Sun altitude
Exits shadow 23:21:54 17° 86° (E) 2,022 4.5 -12.2°
Maximum altitude 23:23:39 19° 62° (ENE) 1,887 4.5 -12.6°
Drops below altitude 10° 23:27:21 10° 19° (NNE) 2,454 5.4 -13.3°
Sets 23:30:21 0° 2° (N) 3,393 6.3 -13.8°
